Dewpoint
68 68 66 65 64 64 65 65 64 63 65 64 64 63 60 60 58 57 58 59 59 60 61 60 61 63 64 65 65 66 66 67 68 68 67 61 60 64 66 65 65 65 65 65 65 66 67 67 68 70 70 70 71 71 71 71 71 71 71 70 70 70 70 70 69 69 69 69 69 68 67 66 65 64
68 68 68 66 65 65 66 67 67 64 63 64 64 63 62 61 59 59 58 58 60 60 62 60 60 63 63 65 65 66 65 69 69 68 68 63 61 64 65 65 65 65 65 65 65 65 66 67 68 69 70 71 71 71 71 71 71 71 71 70 70 70 69 69 69 69 69 68 67 66 66 65 65 65
68 68 67 67 66 66 66 66 66 68 64 65 64 64 63 63 60 60 59 56 60 61 60 61 60 61 64 64 64 66 66 67 68 68 68 65 65 65 64 65 65 64 65 65 65 65 66 66 67 68 69 69 70 70 71 71 71 71 71 70 70 69 69 69 69 69 67 66 65 65 65 64 64 65
69 68 68 68 67 67 66 66 67 67 67 66 66 65 64 63 63 62 60 58 58 63 61 61 62 62 63 65 64 64 66 67 69 68 68 66 68 66 64 66 66 65 64 65 65 65 65 65 66 67 68 69 69 70 70 70 71 70 70 70 69 69 69 68 68 67 66 65 65 65 64 64 64 64
68 68 68 68 68 67 66 66 66 66 67 66 66 66 65 64 64 63 62 61 61 63 65 64 63 63 64 65 65 64 64 65 67 69 67 67 66 66 66 66 67 66 65 64 64 65 65 65 65 66 67 68 69 69 69 70 69 69 69 69 68 68 69 68 67 66 65 64 64 63 64 64 64 63
69 68 68 68 68 68 66 66 65 65 67 67 65 65 66 64 65 64 63 62 61 60 62 63 65 64 65 63 64 64 64 65 68 68 67 67 66 65 65 66 67 67 66 65 64 65 65 65 65 66 66 67 68 68 69 69 67 68 68 68 67 67 67 66 66 66 65 63 63 63 64 63 63 62
70 69 68 68 68 68 67 66 65 65 66 67 66 64 65 64 64 65 64 62 61 61 62 63 63 64 64 63 62 64 64 65 67 66 66 66 67 67 66 66 66 67 67 66 65 65 65 65 65 65 65 66 66 66 67 67 66 66 66 65 66 66 66 65 65 65 64 64 63 62 62 62 62 62
70 69 68 68 68 68 68 67 66 65 65 66 66 65 65 65 64 65 65 63 62 62 61 62 64 64 64 64 63 65 65 64 67 66 66 65 66 67 68 67 67 67 66 66 65 65 65 64 64 64 64 64 63 64 65 65 64 64 64 64 64 64 64 63 62 63 63 62 62 61 62 62 61 61
71 70 69 68 68 68 68 68 67 66 65 65 66 66 65 65 65 66 66 65 64 62 62 62 63 65 64 65 64 65 65 65 66 66 65 64 65 66 67 68 67 67 66 66 66 65 65 65 64 64 63 62 62 63 63 63 63 63 62 61 62 62 62 61 61 60 60 60 60 60 61 61 61 61
72 70 69 69 69 68 68 67 67 67 65 65 65 66 65 65 65 65 66 66 65 64 62 62 62 62 64 64 64 65 65 64 65 65 66 65 65 65 65 66 67 67 67 66 66 66 65 64 64 64 63 62 61 62 62 63 62 61 60 59 60 62 60 59 59 59 58 58 58 59 60 60 61 60
73 71 70 69 69 68 68 68 67 67 66 66 65 65 65 66 65 65 65 65 65 65 64 63 63 62 64 65 63 64 65 65 64 64 64 65 66 65 64 64 65 66 66 66 66 66 65 65 64 62 61 61 61 61 61 61 61 60 59 58 58 58 59 59 58 57 57 58 57 57 57 56 59 59
73 72 71 70 69 69 68 68 68 67 67 67 66 65 66 66 66 65 65 65 65 64 64 64 63 64 63 63 64 65 64 64 64 64 63 63 64 65 65 64 64 65 65 65 65 65 65 64 64 62 61 62 62 61 61 62 62 61 59 59 60 60 58 58 57 56 56 56 56 56 57 56 57 58
73 72 72 71 70 70 69 67 67 67 66 67 66 66 66 66 66 65 65 65 65 64 64 64 64 63 64 64 64 64 64 63 62 63 64 63 63 64 65 65 66 66 65 65 65 65 65 64 64 63 63 62 63 62 63 63 64 62 60 59 60 60 58 58 57 57 56 55 55 55 56 56 55 55
72 72 72 72 70 67 66 66 65 65 65 65 67 67 67 66 66 65 65 65 64 64 64 64 63 63 63 63 63 63 64 64 63 63 64 63 63 62 63 64 65 66 65 64 64 64 65 64 63 64 63 64 66 63 63 62 62 62 61 60 60 60 59 58 57 56 55 55 55 54 54 54 54 54
72 72 72 72 71 68 67 67 64 64 64 64 65 66 66 66 67 66 65 65 65 64 64 64 64 63 63 63 63 63 63 65 64 63 63 63 63 63 62 62 63 67 66 65 64 64 65 64 63 63 63 64 64 65 63 62 62 61 61 61 61 60 60 59 58 56 55 55 55 54 53 53 53 54
71 71 72 72 72 71 70 69 68 65 63 63 63 64 65 65 65 65 66 65 65 65 64 64 64 64 63 63 63 63 63 63 64 64 63 63 63 63 63 62 62 64 67 65 64 64 65 65 64 63 64 64 64 65 64 62 61 60 60 61 60 59 59 59 59 58 56 56 56 55 54 54 54 54
72 71 71 71 72 72 68 69 70 69 68 63 62 63 64 64 63 64 64 64 66 65 65 64 64 64 64 64 64 64 63 64 63 64 63 63 63 63 62 62 63 63 68 65 64 63 64 65 64 63 64 65 65 65 63 62 61 60 60 60 60 59 59 59 59 58 57 56 54 52 52 54 55 54
72 72 71 71 71 72 72 71 70 70 69 69 67 65 65 66 66 63 62 63 63 66 65 64 64 64 65 64 64 65 65 64 63 63 63 64 63 63 62 63 63 64 68 65 64 63 63 64 64 63 63 64 65 65 63 62 62 61 60 59 59 59 59 59 58 57 56 55 54 52 52 52 52 52
73 72 72 72 71 71 72 72 70 70 70 70 69 68 67 66 67 67 67 66 65 66 66 65 64 64 64 65 65 65 66 65 64 63 63 64 64 64 64 64 64 64 67 65 64 61 62 63 64 63 63 63 63 63 61 61 61 61 60 59 59 58 58 58 58 56 54 53 53 53 52 51 50 50
73 73 73 72 72 72 72 69 65 67 70 70 69 69 68 68 67 67 65 64 65 66 66 66 65 65 64 63 66 66 65 66 66 65 65 64 64 64 63 63 63 63 65 65 63 61 61 62 63 63 63 62 61 61 60 59 60 60 59 59 59 58 57 57 56 55 53 53 53 53 52 50 49 49
73 73 73 73 73 72 72 68 64 63 65 70 70 69 69 69 68 68 68 64 62 62 62 61 62 62 62 61 60 60 61 64 65 65 64 63 64 63 62 62 62 63 63 65 63 62 60 61 62 62 61 60 60 59 58 58 59 60 59 59 58 57 55 55 54 53 53 53 52 52 51 50 49 50
72 72 71 73 73 73 72 66 63 62 65 70 70 70 69 69 68 68 68 68 67 62 61 61 61 61 62 62 61 60 60 60 63 65 63 63 63 63 62 61 62 62 63 64 64 61 61 60 62 61 56 58 56 58 57 57 58 59 58 57 56 55 54 53 52 52 52 52 52 51 51 50 50 50
72 72 71 69 69 71 70 64 62 61 63 70 70 70 70 69 69 69 69 68 67 67 67 66 65 66 65 65 64 65 61 61 67 65 64 64 63 62 62 62 62 61 62 63 64 61 60 60 60 59 53 53 53 56 57 58 56 57 58 56 55 54 53 52 50 49 51 51 51 51 50 49 50 51
72 72 72 70 62 62 63 62 60 60 59 69 71 71 70 70 69 70 69 69 68 68 67 67 67 67 67 67 66 66 65 64 65 65 65 64 63 63 62 62 62 61 61 63 65 62 61 60 59 58 55 52 50 51 55 56 56 56 55 55 54 54 55 54 52 50 49 49 49 50 49 48 49 50
72 72 72 72 65 60 60 59 59 58 57 61 70 71 71 70 70 68 70 69 66 68 68 67 67 67 67 67 67 66 66 66 65 65 64 65 64 63 63 62 62 61 62 62 64 63 61 60 59 57 55 52 50 50 51 53 55 56 57 55 53 53 52 51 51 48 50 49 48 48 48 48 49 49
72 72 72 72 68 61 59 58 58 57 57 57 66 70 64 64 63 68 69 70 69 69 68 68 67 67 67 67 67 67 66 66 66 66 65 65 65 64 63 63 62 61 62 62 62 63 61 59 59 57 55 52 50 49 49 50 52 55 56 55 53 52 51 50 51 49 49 49 50 49 48 49 50 50
73 73 73 72 67 62 58 57 56 57 57 57 61 59 60 61 61 64 68 69 70 69 69 68 67 67 67 67 66 66 66 66 66 66 66 66 65 65 64 64 63 63 63 61 64 64 62 60 60 57 55 53 51 49 48 46 47 53 54 54 53 52 52 50 50 50 51 51 52 51 50 49 50 50
73 73 73 71 63 58 55 54 55 56 56 61 58 56 57 59 61 67 68 68 69 69 69 68 68 68 68 67 67 67 67 67 67 67 66 66 67 66 66 67 67 66 64 61 63 64 62 60 59 58 57 53 51 47 46 47 50 50 50 52 53 52 51 52 50 53 55 53 52 53 52 51 52 51
69 53 49 52 56 58 57 56 55 54 54 54 54 55 56 58 63 66 68 69 69 69 69 69 69 69 69 68 68 68 68 68 67 67 67 66 67 68 68 67 67 66 64 62 61 63 61 60 58 58 56 53 52 50 48 46 47 47 48 49 49 50 53 53 51 51 53 52 52 51 50 50 51 55
56 55 55 55 58 61 62 64 65 66 66 59 57 56 57 62 63 65 66 68 69 69 69 69 69 69 70 70 69 68 68 68 68 67 66 67 67 67 66 65 65 63 64 63 63 64 62 60 58 57 55 53 52 51 48 47 47 47 50 47 46 53 53 51 50 49 53 50 50 51 50 52 52 53
64 65 65 65 61 60 60 60 59 61 63 64 63 64 63 63 64 65 66 67 68 69 69 69 70 70 71 70 67 67 66 67 68 68 66 66 67 66 65 65 64 63 63 62 62 61 63 61 58 56 54 54 53 51 49 48 47 46 49 48 47 41 45 50 48 46 47 48 49 52 53 52 52 56
65 66 63 63 66 67 67 68 68 68 67 66 65 66 66 66 65 64 62 62 66 67 68 69 70 70 71 69 66 66 66 67 67 67 67 66 65 65 64 64 63 63 62 60 60 61 64 62 58 57 56 55 52 52 50 48 47 46 47 49 48 46 50 46 47 48 50 50 49 49 50 51 49 51
64 64 64 64 65 65 66 66 67 67 68 68 68 68 68 67 67 67 67 67 67 67 67 67 68 68 69 69 66 65 66 66 66 67 67 66 65 64 64 63 63 62 61 60 58 58 60 61 59 56 55 53 52 51 51 47 47 47 46 49 50 47 48 47 46 46 49 48 47 49 49 50 50 50
60 61 61 62 62 63 63 64 64 64 64 64 64 65 62 65 66 66 66 67 67 66 66 67 67 67 68 68 67 66 65 66 66 66 64 66 65 64 63 63 63 62 61 60 58 57 59 58 59 58 55 55 54 51 50 47 47 47 47 48 49 47 49 49 49 49 48 47 47 47 47 48 50 51
58 58 58 58 59 59 59 59 60 60 60 61 61 61 62 62 63 62 63 64 64 65 65 66 66 66 67 67 67 67 65 65 66 66 65 65 65 64 63 62 63 62 61 60 58 57 57 57 56 55 55 53 51 51 57 49 47 48 48 48 48 47 48 50 49 49 49 49 48 47 48 48 49 50
57 56 56 56 56 57 57 57 58 59 59 60 60 60 60 60 60 60 60 60 62 62 62 63 64 65 66 66 66 66 66 64 65 66 66 65 64 64 64 63 62 62 62 61 60 58 57 56 56 54 52 52 50 48 49 55 52 48 47 47 48 48 48 49 51 49 49 49 50 47 47 46 46 46
56 55 55 55 55 55 57 57 58 59 59 60 60 60 59 59 59 59 59 59 60 59 60 60 60 61 63 64 64 64 65 65 65 65 65 65 65 64 63 62 62 62 61 60 59 58 56 56 56 54 53 50 49 47 49 52 51 50 48 47 48 49 48 49 50 50 51 50 50 47 46 44 44 45
55 54 55 56 56 56 57 58 59 59 60 60 60 59 59 59 59 60 60 60 59 59 59 59 59 60 60 61 63 64 65 66 65 65 64 65 64 64 63 62 62 61 61 60 58 57 57 56 55 54 53 50 50 49 49 50 51 50 49 48 47 49 50 49 48 48 49 49 48 48 46 44 45 46
55 56 56 56 57 57 57 57 58 59 59 59 59 59 59 59 59 59 59 59 59 59 59 59 60 60 60 61 62 63 64 64 65 65 65 65 64 64 63 62 62 61 61 59 58 57 56 56 55 54 52 52 50 49 49 50 48 50 50 47 48 49 50 48 48 48 47 47 48 48 48 47 48 51
57 56 57 57 57 57 57 58 59 59 59 59 59 59 59 58 58 59 59 58 59 58 59 59 59 59 61 61 61 63 63 64 64 64 64 64 63 63 63 63 62 62 60 58 56 56 55 56 55 55 55 54 54 53 52 51 49 51 52 49 47 48 49 49 48 48 48 47 47 46 45 45 45 46
56 56 56 57 57 57 57 58 58 59 59 59 58 57 58 58 58 58 59 58 58 59 59 59 60 60 61 61 62 62 62 62 63 64 64 64 63 62 61 59 61 61 59 57 56 55 55 56 57 55 56 55 54 51 48 45 44 44 48 51 49 48 49 50 49 48 47 48 45 44 43 43 43 43
56 57 56 56 56 57 56 57 57 57 57 57 57 57 57 57 58 55 57 58 58 58 59 59 59 59 60 61 62 61 61 62 62 62 62 62 63 61 59 59 60 60 58 56 56 56 57 57 58 56 54 54 54 51 48 47 47 47 46 48 51 50 48 50 50 50 48 47 45 45 45 45 44 43
57 57 56 56 56 56 56 56 56 56 57 57 57 57 57 57 57 57 57 57 57 57 57 58 58 58 58 59 61 62 62 62 62 62 62 61 60 60 59 60 60 60 59 57 57 57 57 56 56 55 54 54 52 52 50 49 48 47 47 45 47 51 51 51 50 50 50 50 48 47 45 45 44 42
56 56 55 55 55 56 55 56 55 55 56 56 56 56 56 56 56 56 56 56 56 56 56 56 57 57 57 58 59 59 58 58 60 60 61 59 56 56 55 55 55 55 55 56 55 56 56 55 55 55 54 53 51 51 50 50 50 49 47 43 47 47 48 49 51 50 51 51 51 51 49 48 48 47
56 56 56 55 55 55 55 55 56 55 55 55 56 56 56 55 55 55 55 56 56 56 55 55 56 56 57 57 57 56 57 54 56 56 56 56 56 55 55 55 55 55 54 55 54 54 55 54 55 54 53 53 53 52 52 51 50 48 46 47 45 44 45 50 48 48 48 48 49 51 51 50 50 49